Aérodrome :
LOGIN :

S'inscrire | Disclaimer

   EN    FR    IT 

 










Légende :    VFR   VFR Marginal   IFR   IFR Intensif   IFR Très Intensif
Visi : 
Plafond : 
>= 8 km
>= 3000ft
5 à 8 km
1000 à 3000 ft
1500m à 5 km
500 à 1000 ft
800 à 1500m
200 à 500 ft
< 800m
< 200 ft
Symboles :   Orages  Brouillard  Fortes neiges  Fortes précipitations  Vent > 20 kt
SIGMETs :   Divers  Orages  Givrage  Turbulence  Onde Orograph.  Cendres Volcan.







- Altitude de l'aérodrome : 1302 ft
- Code IATA : GNB
- Voir les cartes d'approche


LFLS - Grenoble / St. Geoirs

DERNIER METAR :
  • 211830Z AUTO 36006KT 9999 NCD 25/15 Q1018 NOSIG

TAF AMD TAF LFLS
Valide du 21 à 10h jusqu'au 22 à 09h UTC


211020Z 2110/2209 30005KT 9999 FEW040
PROB40
TEMPO 2111/2115 FEW040TCU SCT050
PROB30
TEMPO 2111/2114 SHRA FEW040CB BKN050
BECMG 2119/2121 36013KT
PROB40
TEMPO 2121/2124 36015G25KT
TEMPO 2202/2208 BKN040
ATIS : +33 4 76 65 55 89
Pas de NOTAMs connus pour ce terrain.



MET'MAP, la Météo Aéronautique d'un coup d'oeil ! - Copyright ORBIFLY Décembre 2007 - Disclaimer

ORBIFLY MET'MAP TEAM :

Programmation & Développement : Alexandra Zaïnal
Conception & Développement : Baudouin d'Aumeries
Co-Programmation & Développement : Marc-Olivier Méhu
Soutien technique & logistique : Manuel Goepfert

Contact : metmap@orbifly.com




SOURCES & CREDITS :

   NOAA